Volver al catálogo

NOAA 16 DEB

ActivoPO
NORAD 42394·DEBRIS·🇺🇸 United States

Lanzado Sep 21, 2000 desde Vandenberg Space Force Base

Loading…

Próximos Pases (próximas 24 horas)

TLE

ActualizadoSource: Space-Track

Época: Sep 14, 2026, 10:17 UTC

1 42394U 00055SN  26257.42905977  .00004927  00000-0  10357-2 0  9997
2 42394  98.9646 125.8690 0030201 173.9446 186.2122 14.59792867548622

Sigue NOAA 16 DEB en tiempo real con AllMySat

Download on the App Store